Main page
METAR-TAF:

METAR-TAF

Airports :

Bay City Municipal Airport

Bay City, Texas, United States

latitude: 28-58-23N, longitude: 095-51-48W, elevation: 46 ft

Current weather observation

The report was made 18 minutes ago, at 19:55 UTC
Wind 22 mph from the Southeast
Temperature 90°F
Humidity 63%
Pressure 29.82 in. Hg
Visibility: 10 miles
Scattered clouds at a height of 3000 ft
Scattered clouds at a height of 3600 ft
Broken clouds at a height of 4400 ft

METAR: KBYY 171955Z AUTO 13019KT 10SM SCT030 SCT036 BKN044 32/24 A2982 RMK AO2 T03180245

Time: 15:13 (20:13 UTC)


TAF: missing

Weather observations and forecasts of more than 4000 airports (METAR and TAF reports).

The available stations are represented by yellow and red dots on the map.

Hover mouse over dot to see the name of the station.

Then click to see weather observations and forecasts.

To change the map : click on the green buttons with a black cross to zoom in, on the green button with a dash to zoom out, or on the green arrows for adjacent maps.


METAR-TAF: